Terminal Aerodrome Forecast
Issued by NWS

Home | Current Version | Previous Version | Text Only | Print | Product List | Glossary On
Versions: 1 2 3 4 5 6 7 8 9 10 11 12 13 14 15 16 17 18 19 20 21 22 23
000
FTUS43 KDLH 161700
TAFHIB
TAF
KHIB 161724Z 1618/1718 10015G25KT 6SM -SN BLSN OVC045
      TEMPO 1618/1620 2SM -SN OVC020
     FM162000 09015G25KT 2SM -SN OVC015
      TEMPO 1620/1624 1SM -SN OVC007
     FM170200 03014G23KT 4SM -SN SCT007 OVC015
     FM170900 01010KT P6SM -SN SCT007 OVC015
     FM171400 03010KT P6SM BKN030=

USA.gov is the U.S. government's official web portal to all federal, state and local government web resources and services.